TimeEDT,TemperatureF,Dew PointF,Humidity,Sea Level PressureIn,VisibilityMPH,Wind Direction,Wind SpeedMPH,Gust SpeedMPH,PrecipitationIn,Events,Conditions,WindDirDegrees,DateUTC
12:03 AM,60.8,59.0,94,29.72,10.0,NW,3.5,-,N/A,,Overcast,320,2013-09-22 04:03:00
12:20 AM,60.8,60.8,100,29.72,10.0,NW,3.5,-,N/A,,Overcast,310,2013-09-22 04:20:00
12:53 AM,61.0,60.1,97,29.71,10.0,NW,3.5,-,N/A,,Overcast,310,2013-09-22 04:53:00
1:53 AM,61.0,59.0,93,29.71,8.0,WNW,6.9,-,N/A,,Overcast,300,2013-09-22 05:53:00
2:53 AM,59.0,57.9,96,29.72,6.0,WNW,5.8,-,N/A,,Scattered Clouds,290,2013-09-22 06:53:00
3:11 AM,59.0,57.2,94,29.73,7.0,WNW,8.1,-,N/A,,Scattered Clouds,290,2013-09-22 07:11:00
3:20 AM,59.0,57.2,94,29.73,6.0,WNW,4.6,-,N/A,,Mostly Cloudy,290,2013-09-22 07:20:00
3:30 AM,57.2,57.2,100,29.73,5.0,West,4.6,-,N/A,,Scattered Clouds,270,2013-09-22 07:30:00
3:53 AM,57.9,57.0,97,29.73,3.0,West,5.8,-,N/A,,Clear,260,2013-09-22 07:53:00
4:01 AM,57.2,57.2,100,29.73,3.0,West,5.8,-,N/A,,Partly Cloudy,280,2013-09-22 08:01:00
4:53 AM,55.9,55.9,100,29.75,5.0,West,4.6,-,0.01,,Clear,270,2013-09-22 08:53:00
5:30 AM,55.4,55.4,100,29.76,1.8,West,4.6,-,N/A,,Clear,270,2013-09-22 09:30:00
5:50 AM,55.4,55.4,100,29.77,3.0,WNW,4.6,-,N/A,,Scattered Clouds,290,2013-09-22 09:50:00
5:51 AM,55.9,55.9,100,29.76,3.0,WNW,4.6,-,N/A,,Scattered Clouds,290,2013-09-22 09:51:00
6:08 AM,55.4,55.4,100,29.77,4.0,West,4.6,-,N/A,,Mostly Cloudy,270,2013-09-22 10:08:00
6:15 AM,55.4,55.4,100,29.77,4.0,West,4.6,-,N/A,,Partly Cloudy,270,2013-09-22 10:15:00
6:53 AM,55.0,55.0,100,29.78,4.0,West,5.8,-,N/A,,Clear,280,2013-09-22 10:53:00
7:11 AM,53.6,53.6,100,29.80,2.5,WNW,3.5,-,N/A,,Partly Cloudy,290,2013-09-22 11:11:00
7:20 AM,53.6,53.6,100,29.80,3.0,WNW,4.6,-,N/A,,Partly Cloudy,300,2013-09-22 11:20:00
7:53 AM,57.9,55.0,90,29.81,10.0,NNW,8.1,26.5,N/A,,Scattered Clouds,330,2013-09-22 11:53:00
8:53 AM,60.1,53.1,78,29.83,10.0,NNW,6.9,-,N/A,,Clear,330,2013-09-22 12:53:00
9:53 AM,63.0,51.1,65,29.84,10.0,NNE,9.2,-,N/A,,Clear,20,2013-09-22 13:53:00
10:53 AM,64.9,50.0,58,29.85,10.0,NNW,6.9,-,N/A,,Scattered Clouds,330,2013-09-22 14:53:00
11:53 AM,64.0,48.0,56,29.84,10.0,NNW,10.4,-,N/A,,Mostly Cloudy,330,2013-09-22 15:53:00
12:53 PM,64.0,46.0,52,29.85,10.0,NNW,9.2,-,N/A,,Overcast,330,2013-09-22 16:53:00
1:53 PM,64.9,46.9,52,29.83,10.0,NNW,17.3,20.7,N/A,,Overcast,340,2013-09-22 17:53:00
2:53 PM,66.0,45.0,47,29.83,10.0,NW,11.5,-,N/A,,Mostly Cloudy,320,2013-09-22 18:53:00
3:53 PM,66.0,44.1,45,29.83,10.0,NNW,12.7,18.4,N/A,,Overcast,340,2013-09-22 19:53:00
4:53 PM,64.9,44.1,47,29.83,10.0,NNW,10.4,-,N/A,,Mostly Cloudy,330,2013-09-22 20:53:00
5:53 PM,64.0,44.1,48,29.85,10.0,NNW,9.2,-,N/A,,Overcast,340,2013-09-22 21:53:00
6:53 PM,62.1,44.1,52,29.87,10.0,NNW,6.9,-,N/A,,Overcast,330,2013-09-22 22:53:00
7:53 PM,57.9,44.1,60,29.89,10.0,NNW,5.8,-,N/A,,Mostly Cloudy,340,2013-09-22 23:53:00
8:53 PM,55.0,44.1,67,29.92,10.0,NW,4.6,-,N/A,,Clear,320,2013-09-23 00:53:00
9:53 PM,54.0,45.0,72,29.94,10.0,North,6.9,-,N/A,,Scattered Clouds,360,2013-09-23 01:53:00
10:53 PM,54.0,45.0,72,29.95,10.0,North,4.6,-,N/A,,Overcast,10,2013-09-23 02:53:00
11:53 PM,55.0,42.1,62,29.96,10.0,North,8.1,-,N/A,,Overcast,360,2013-09-23 03:53:00